DLH1HF EDDF-EDDL

Flight info

Callsign DLH1HF
Flight time 0h 30m
Altitude 24000
Route MARUN3W/25C MARUN Y152 ARPEG Z850 ADEMI T854 DOMUX DOMUX1A
Aircraft A320/M-SDE2E3FGIJ1LORWXYZ/HB1

Departure

Time 2026-05-04 11:59
Airport Frankfurt Main Airport (EDDF)

Arrival

Time 2026-05-04 12:30
Airport Düsseldorf Airport (EDDL)
Time Latitude Longitude Altitude Speed Heading
2026-05-04 11:36 50.04097 8.55752 362 ft 0 kts 160°
2026-05-04 11:55 50.04018 8.55818 353 ft 7 kts 103°
2026-05-04 11:55 50.04034 8.55892 353 ft 10 kts 69°
2026-05-04 11:56 50.04072 8.56049 358 ft 21 kts 69°
2026-05-04 11:56 50.04129 8.56284 357 ft 24 kts 69°
2026-05-04 11:56 50.04189 8.56536 358 ft 25 kts 70°
2026-05-04 11:56 50.04251 8.56795 360 ft 25 kts 70°
2026-05-04 11:57 50.04312 8.57051 361 ft 25 kts 69°
2026-05-04 11:57 50.04371 8.57299 364 ft 22 kts 69°
2026-05-04 11:57 50.04419 8.57500 364 ft 18 kts 69°
2026-05-04 11:57 50.04401 8.57648 366 ft 12 kts 142°
2026-05-04 11:58 50.04328 8.57690 362 ft 12 kts 159°
2026-05-04 11:58 50.04272 8.57683 362 ft 8 kts 236°
2026-05-04 11:58 50.04220 8.57467 366 ft 52 kts 250°
2026-05-04 11:58 50.04006 8.56575 363 ft 121 kts 249°
2026-05-04 11:59 50.03656 8.55109 581 ft 154 kts 249°
2026-05-04 11:59 50.03276 8.53529 1376 ft 157 kts 249°
2026-05-04 11:59 50.02875 8.51878 2046 ft 172 kts 247°
2026-05-04 11:59 50.02350 8.50112 2551 ft 189 kts 233°
2026-05-04 12:00 50.01357 8.48681 3112 ft 200 kts 211°
2026-05-04 12:00 50.00039 8.47955 3815 ft 205 kts 190°
2026-05-04 12:00 49.98616 8.47674 4519 ft 207 kts 190°
2026-05-04 12:00 49.97181 8.47384 5232 ft 209 kts 191°
2026-05-04 12:01 49.95744 8.47015 5916 ft 211 kts 198°
2026-05-04 12:01 49.94262 8.46342 6278 ft 235 kts 199°
2026-05-04 12:02 49.93453 8.35018 11455 ft 285 kts 334°
2026-05-04 12:03 49.95359 8.33752 11856 ft 310 kts 335°
2026-05-04 12:03 49.97437 8.32414 12233 ft 334 kts 336°
2026-05-04 12:03 49.99639 8.31011 12791 ft 348 kts 336°
2026-05-04 12:03 50.01924 8.29671 13570 ft 355 kts 342°
2026-05-04 12:04 50.04371 8.29000 14361 ft 358 kts 355°
2026-05-04 12:04 50.06830 8.29148 15366 ft 355 kts
2026-05-04 12:04 50.09221 8.30033 15937 ft 365 kts 17°
2026-05-04 12:04 50.11676 8.31294 16439 ft 376 kts 18°
2026-05-04 12:05 50.14176 8.32605 17104 ft 381 kts 18°
2026-05-04 12:05 50.16710 8.33948 17784 ft 386 kts 18°
2026-05-04 12:05 50.19271 8.35309 18440 ft 391 kts 18°
2026-05-04 12:05 50.21863 8.36682 19034 ft 396 kts 17°
2026-05-04 12:06 50.24485 8.38065 19627 ft 400 kts 17°
2026-05-04 12:06 50.27136 8.39461 20221 ft 404 kts 17°
2026-05-04 12:06 50.29812 8.40876 20805 ft 408 kts 17°
2026-05-04 12:06 50.32513 8.42332 21378 ft 412 kts 17°
2026-05-04 12:07 50.35232 8.43814 21963 ft 416 kts 17°
2026-05-04 12:07 50.37975 8.45321 22615 ft 419 kts 17°
2026-05-04 12:07 50.40742 8.46841 23242 ft 424 kts 17°
2026-05-04 12:07 50.43534 8.48378 23749 ft 427 kts 17°
2026-05-04 12:08 50.46349 8.49926 23944 ft 429 kts 17°
2026-05-04 12:08 50.49160 8.51440 23993 ft 419 kts 16°
2026-05-04 12:08 50.51915 8.52814 24000 ft 414 kts 15°
2026-05-04 12:08 50.54631 8.54089 23998 ft 412 kts 14°
2026-05-04 12:09 50.57379 8.55351 24006 ft 411 kts 14°
2026-05-04 12:09 50.60126 8.56617 23995 ft 411 kts 14°
2026-05-04 12:09 50.62867 8.57898 23993 ft 411 kts 14°
2026-05-04 12:09 50.65603 8.59200 23988 ft 411 kts 14°
2026-05-04 12:10 50.68344 8.60517 23993 ft 411 kts 15°
2026-05-04 12:10 50.71080 8.61841 23993 ft 411 kts 15°
2026-05-04 12:10 50.73813 8.63169 23993 ft 410 kts 15°
2026-05-04 12:10 50.76580 8.64189 23988 ft 407 kts
2026-05-04 12:11 50.79382 8.64189 23993 ft 401 kts 349°
2026-05-04 12:11 50.82074 8.63199 23990 ft 395 kts 336°
2026-05-04 12:11 50.84530 8.61333 23984 ft 388 kts 323°
2026-05-04 12:11 50.86626 8.58718 23983 ft 382 kts 310°
2026-05-04 12:12 50.88368 8.55581 23978 ft 379 kts 306°
2026-05-04 12:12 50.90049 8.52424 23979 ft 379 kts 306°
2026-05-04 12:12 50.91748 8.49235 23986 ft 379 kts 306°
2026-05-04 12:12 50.93456 8.46037 23978 ft 380 kts 306°
2026-05-04 12:13 50.95162 8.42842 23972 ft 380 kts 306°
2026-05-04 12:14 51.09282 8.23856 23995 ft 390 kts 326°
2026-05-04 12:15 51.11649 8.21744 23993 ft 390 kts 326°
2026-05-04 12:15 51.14016 8.19634 23990 ft 390 kts 326°
2026-05-04 12:15 51.16378 8.17529 23987 ft 389 kts 326°
2026-05-04 12:15 51.18741 8.15421 23980 ft 389 kts 326°
2026-05-04 12:16 51.21106 8.13312 23985 ft 389 kts 326°
2026-05-04 12:16 51.23467 8.11201 23995 ft 389 kts 326°
2026-05-04 12:16 51.25833 8.09086 23988 ft 389 kts 326°
2026-05-04 12:16 51.28193 8.06971 23983 ft 389 kts 326°
2026-05-04 12:17 51.29757 8.05564 23987 ft 389 kts 326°
2026-05-04 12:17 51.32885 8.02750 23982 ft 389 kts 326°
2026-05-04 12:17 51.35242 8.00630 23978 ft 389 kts 325°
2026-05-04 12:17 51.37599 7.98502 23980 ft 389 kts 325°
2026-05-04 12:18 51.39954 7.96372 23976 ft 389 kts 325°
2026-05-04 12:18 51.42292 7.94207 23861 ft 385 kts 322°
2026-05-04 12:18 51.43688 7.92485 23377 ft 381 kts 311°
2026-05-04 12:18 51.45338 7.89257 22760 ft 370 kts 296°
2026-05-04 12:19 51.46348 7.85548 22231 ft 358 kts 281°
2026-05-04 12:19 51.46685 7.81652 21577 ft 352 kts 266°
2026-05-04 12:19 51.46346 7.77751 20602 ft 357 kts 252°
2026-05-04 12:19 51.45639 7.73879 19635 ft 366 kts 251°
2026-05-04 12:20 51.44919 7.69942 18949 ft 367 kts 251°
2026-05-04 12:20 51.44205 7.66021 18341 ft 367 kts 251°
2026-05-04 12:20 51.43492 7.62105 17627 ft 363 kts 252°
2026-05-04 12:20 51.42794 7.58254 16550 ft 358 kts 252°
2026-05-04 12:21 51.42145 7.54431 15498 ft 354 kts 257°
2026-05-04 12:21 51.41986 7.50504 14518 ft 352 kts 268°
2026-05-04 12:21 51.42020 7.46594 13521 ft 349 kts 269°
2026-05-04 12:21 51.42057 7.42737 12467 ft 344 kts 269°
2026-05-04 12:22 51.42097 7.38932 11444 ft 339 kts 269°
2026-05-04 12:22 51.42134 7.35202 10800 ft 324 kts 269°
2026-05-04 12:22 51.42167 7.31746 10667 ft 297 kts 269°
2026-05-04 12:22 51.42194 7.28535 10316 ft 281 kts 269°
2026-05-04 12:23 51.42216 7.25438 9739 ft 276 kts 269°
2026-05-04 12:23 51.42238 7.22378 9051 ft 274 kts 269°
2026-05-04 12:23 51.42257 7.19338 8368 ft 272 kts 269°
2026-05-04 12:23 51.42272 7.16315 7678 ft 271 kts 269°
2026-05-04 12:24 51.42285 7.13280 6816 ft 275 kts 269°
2026-05-04 12:24 51.42298 7.10250 6031 ft 276 kts 269°
2026-05-04 12:24 51.42291 7.07184 5252 ft 273 kts 263°
2026-05-04 12:24 51.41739 7.04333 4480 ft 268 kts 237°
2026-05-04 12:25 51.40652 7.01914 3662 ft 267 kts 231°
2026-05-04 12:25 51.39584 6.99655 3290 ft 236 kts 231°
2026-05-04 12:25 51.38657 6.97702 3121 ft 207 kts 232°
2026-05-04 12:25 51.37814 6.95945 2875 ft 190 kts 231°
2026-05-04 12:26 51.37056 6.94359 2642 ft 171 kts 232°
2026-05-04 12:26 51.36356 6.92883 2409 ft 161 kts 231°
2026-05-04 12:26 51.35696 6.91491 2180 ft 152 kts 232°
2026-05-04 12:26 51.35070 6.90169 1997 ft 147 kts 232°
2026-05-04 12:27 51.34468 6.88898 1830 ft 139 kts 233°
2026-05-04 12:27 51.33897 6.87694 1632 ft 133 kts 231°
2026-05-04 12:27 51.33343 6.86525 1446 ft 131 kts 232°
2026-05-04 12:27 51.32791 6.85363 1278 ft 132 kts 232°
2026-05-04 12:28 51.32243 6.84206 1092 ft 130 kts 231°
2026-05-04 12:28 51.31704 6.83067 915 ft 129 kts 232°
2026-05-04 12:28 51.31168 6.81929 759 ft 127 kts 232°
2026-05-04 12:28 51.30634 6.80801 570 ft 127 kts 232°
2026-05-04 12:29 51.30091 6.79656 411 ft 131 kts 232°
2026-05-04 12:29 51.29542 6.78512 239 ft 129 kts 233°
2026-05-04 12:29 51.29017 6.77413 127 ft 112 kts 233°
2026-05-04 12:29 51.28637 6.76620 123 ft 76 kts 232°
2026-05-04 12:30 51.28400 6.76122 128 ft 25 kts 227°
2026-05-04 12:30 51.28250 6.76048 128 ft 19 kts 171°
2026-05-04 12:30 51.28190 6.76132 126 ft 10 kts 79°
2026-05-04 12:30 51.28227 6.76225 124 ft 10 kts 54°
2026-05-04 12:31 51.28270 6.76316 125 ft 10 kts 52°
2026-05-04 12:31 51.28324 6.76430 123 ft 15 kts 52°
2026-05-04 12:31 51.28386 6.76558 123 ft 14 kts 52°
2026-05-04 12:31 51.28443 6.76678 123 ft 13 kts 52°
2026-05-04 12:32 51.28435 6.76793 121 ft 12 kts 138°
2026-05-04 12:32 51.28259 6.76853 129 ft 16 kts 186°
2026-05-04 12:32 51.28153 6.76834 129 ft 13 kts 187°
2026-05-04 12:33 51.28103 6.76802 128 ft 6 kts 234°
2026-05-04 12:33 51.28105 6.76732 129 ft 3 kts 276°
2026-05-04 12:33 51.28106 6.76720 126 ft 0 kts 277°